Imperial, CA

7:25 PM PDT on August 25, 2016 (GMT -0700)
Imperial County

Weather History for KIPL - February, 2013

Change the Weather History Date:

Sunday, February 3, 2013

  Actual Average Record
Temperature  
Mean Temperature 67 °F -  
Max Temperature 77 °F 70 °F 87 °F (1963)
Min Temperature 55 °F 44 °F 23 °F (2011)
Cooling Degree Days 2    
Growing Degree Days 17 (Base 50)    
Moisture  
Dew Point 45 °F    
Average Humidity 50    
Maximum Humidity 75    
Minimum Humidity 28    
Precipitation  
Precipitation 0.00 in - - ()
Sea Level Pressure  
Sea Level Pressure 30.02 in    
Wind  
Wind Speed 4 mph (NW)    
Max Wind Speed 10 mph    
Max Gust Speed -    
Visibility 10 miles    
Events Rain    
Averages and records for this station are not official NWS values.
T = Trace of Precipitation, MM = Missing Value Source: NWS Daily Summary

Daily Weather History Graph

Daily Weather History Graph

Search for Another Location

Airport or City:

Trip Planner

Search our weather history database for the weather conditions in past years. The results will help you decide how hot, cold, wet, or windy it might be!

Date:

Astronomy

Feb. 03, 2013 Rise Set
Actual Time 6:35 AM PST 5:17 PM PST
Civil Twilight 6:09 AM PST 5:42 PM PST
Nautical Twilight 5:40 AM PST 6:12 PM PST
Astronomical Twilight 5:11 AM PST 6:41 PM PST
Moon 12:07 AM PST (2/3) 10:59 AM PST (2/3)
Length of Visible Light 11h 33m
Length of Day
10h 41m
Waning Gibbous, 47% of the Moon is Illuminated
Feb 3
Waning Gibbous
Feb 9
New
Feb 17
First Quarter
Feb 25
Full
Mar 4
Last Quarter

Hourly Weather History & Observations

Time (PST) Temp. Dew Point Humidity Pressure Visibility Wind Dir Wind Speed Gust Speed Precip Events Conditions
12:53 AM 61.0 °F 46.0 °F 58% 30.08 in 10.0 mi West 3.5 mph - N/A   Scattered Clouds
1:53 AM 61.0 °F 46.0 °F 58% 30.06 in 10.0 mi WNW 4.6 mph - N/A   Overcast
2:53 AM 61.0 °F 46.9 °F 60% 30.06 in 10.0 mi West 6.9 mph - N/A   Mostly Cloudy
3:53 AM 60.8 °F 48.2 °F 63% 30.05 in 10.0 mi Calm Calm - N/A Rain Light Rain
4:53 AM 64.0 °F 46.0 °F 52% 30.04 in 10.0 mi NNE 4.6 mph - 0.00 in Rain Light Rain
5:53 AM 61.0 °F 50.0 °F 67% 30.06 in 10.0 mi Calm Calm - 0.00 in   Overcast
6:53 AM 60.1 °F 52.0 °F 75% 30.07 in 10.0 mi WSW 3.5 mph - N/A   Overcast
7:53 AM 62.1 °F 51.1 °F 67% 30.08 in 10.0 mi Calm Calm - N/A   Overcast
8:53 AM 64.9 °F 48.9 °F 56% 30.08 in 10.0 mi NW 3.5 mph - N/A   Overcast
9:53 AM 71.1 °F 45.0 °F 39% 30.07 in 10.0 mi North 5.8 mph - N/A   Mostly Cloudy
10:53 AM 72.0 °F 45.0 °F 38% 30.05 in 10.0 mi NNW 3.5 mph - N/A   Clear
11:53 AM 73.9 °F 43.0 °F 33% 30.01 in 10.0 mi NNW 4.6 mph - N/A   Clear
12:53 PM 75.0 °F 43.0 °F 32% 29.98 in 10.0 mi NNW 5.8 mph - N/A   Clear
1:53 PM 77.0 °F 41.0 °F 28% 29.96 in 10.0 mi North 10.4 mph - N/A   Clear
2:53 PM 75.9 °F 42.1 °F 30% 29.95 in 10.0 mi NNW 8.1 mph - N/A   Clear
3:53 PM 75.0 °F 42.1 °F 31% 29.96 in 10.0 mi NNW 6.9 mph - N/A   Clear
4:53 PM 73.0 °F 43.0 °F 34% 29.96 in 10.0 mi NW 5.8 mph - N/A   Clear
5:53 PM 66.9 °F 45.0 °F 45% 29.97 in 10.0 mi WNW 3.5 mph - N/A   Scattered Clouds
6:53 PM 66.0 °F 44.1 °F 45% 29.97 in 10.0 mi Calm Calm - N/A   Mostly Cloudy
7:53 PM 66.9 °F 43.0 °F 42% 29.99 in 10.0 mi East 4.6 mph - N/A   Scattered Clouds
8:53 PM 61.0 °F 45.0 °F 56% 30.00 in 10.0 mi Calm Calm - N/A   Clear
9:53 PM 59.0 °F 45.0 °F 60% 30.00 in 10.0 mi SW 3.5 mph - N/A   Clear
10:53 PM 57.0 °F 44.1 °F 62% 30.00 in 10.0 mi SW 4.6 mph - N/A   Clear
11:53 PM 55.9 °F 45.0 °F 67% 29.99 in 10.0 mi Calm Calm - N/A   Clear